| time (UTC) | temp F | wind direction | speed MPH | gust MPH | rain 1hr in | rain 24hr in | rain mn in | humidity % | barometer mb |
| 20260504070158 | 52 | 194 | 0.0 | 0.0 | 0.00 | 0.00 | 0.00 | ||
| 20260504050656 | 52 | 194 | 0.0 | 0.0 | 0.00 | 0.00 | 0.00 | ||
| 20260504050154 | 53 | 194 | 0.0 | 0.0 | 0.00 | 0.00 | 0.00 | ||
| 20260504045655 | 53 | 194 | 0.0 | 0.0 | 0.00 | 0.00 | 0.00 | ||
| 20260504045154 | 53 | 194 | 0.0 | 0.0 | 0.00 | 0.00 | 0.00 | ||
| 20260504044655 | 53 | 194 | 0.0 | 0.0 | 0.00 | 0.00 | 0.00 | ||
| 20260504044153 | 53 | 194 | 0.0 | 0.0 | 0.00 | 0.00 | 0.00 | ||
| 20260504043654 | 53 | 194 | 0.0 | 0.0 | 0.00 | 0.00 | 0.00 | ||
| 20260504043153 | 53 | 194 | 0.0 | 0.0 | 0.00 | 0.00 | 0.00 | ||
| 20260504042654 | 53 | 194 | 0.0 | 0.0 | 0.00 | 0.00 | 0.00 | ||
| 20260504041653 | 54 | 194 | 0.0 | 0.0 | 0.00 | 0.00 | 0.00 | ||
| 20260504041152 | 53 | 194 | 0.0 | 0.0 | 0.00 | 0.00 | 0.00 | ||
| 20260504040653 | 54 | 194 | 0.0 | 0.0 | 0.00 | 0.70 | 0.00 | ||
| 20260504040151 | 54 | 194 | 0.0 | 0.0 | 0.00 | 0.70 | 0.00 | ||
| 20260504035653 | 54 | 194 | 0.0 | 0.0 | 0.00 | 0.70 | 0.00 | ||
| 20260504034652 | 54 | 194 | 0.0 | 0.0 | 0.00 | 0.70 | 0.00 | ||
| 20260504034151 | 54 | 194 | 0.0 | 0.0 | 0.00 | 0.70 | 0.00 | ||
| 20260504033652 | 54 | 194 | 0.0 | 0.0 | 0.00 | 0.70 | 0.00 | ||
| 20260504033150 | 54 | 194 | 0.0 | 0.0 | 0.00 | 0.70 | 0.00 | ||
| 20260504032651 | 54 | 194 | 0.0 | 0.0 | 0.00 | 0.70 | 0.00 | ||
| 20260504032149 | 54 | 194 | 0.0 | 0.0 | 0.00 | 0.70 | 0.00 | ||
| 20260504031651 | 54 | 194 | 0.0 | 0.0 | 0.00 | 0.70 | 0.00 | ||
| 20260504031149 | 54 | 194 | 0.0 | 0.0 | 0.00 | 0.70 | 0.00 | ||
| 20260504030650 | 55 | 194 | 0.0 | 0.0 | 0.00 | 0.70 | 0.00 | ||
| 20260504030148 | 55 | 194 | 0.0 | 0.0 | 0.00 | 0.70 | 0.00 | ||
| 20260504025650 | 55 | 194 | 0.0 | 0.0 | 0.00 | 0.70 | 0.00 | ||
| 20260504025148 | 55 | 194 | 0.0 | 0.0 | 0.00 | 0.70 | 0.00 | ||
| 20260504024649 | 55 | 194 | 0.0 | 0.0 | 0.00 | 0.70 | 0.00 | ||
| 20260504024147 | 55 | 194 | 0.0 | 0.0 | 0.00 | 0.70 | 0.00 | ||
| 20260504023649 | 55 | 194 | 0.0 | 0.0 | 0.00 | 0.70 | 0.00 | ||
| 20260504023147 | 55 | 194 | 0.0 | 0.0 | 0.00 | 0.70 | 0.00 | ||
| 20260504022648 | 55 | 194 | 0.0 | 0.0 | 0.00 | 0.70 | 0.00 | ||
| 20260504022146 | 55 | 194 | 0.0 | 0.0 | 0.00 | 0.70 | 0.00 | ||
| 20260504021648 | 56 | 194 | 0.0 | 0.0 | 0.00 | 0.70 | 0.00 | ||
| 20260504020647 | 56 | 194 | 0.0 | 0.0 | 0.00 | 0.70 | 0.00 | ||
| 20260504020145 | 57 | 194 | 0.0 | 0.0 | 0.00 | 0.70 | 0.00 | ||
| 20260504015645 | 56 | 194 | 0.0 | 0.0 | 0.00 | 0.70 | 0.00 | ||
| 20260504015144 | 57 | 194 | 0.0 | 0.0 | 0.00 | 0.70 | 0.00 | ||
| 20260504014645 | 57 | 194 | 0.0 | 0.0 | 0.00 | 0.70 | 0.00 | ||
| 20260504014143 | 57 | 194 | 0.0 | 0.0 | 0.00 | 0.70 | 0.00 | ||
| 20260504013643 | 57 | 194 | 0.0 | 0.0 | 0.00 | 0.70 | 0.00 | ||
| 20260504013141 | 58 | 194 | 0.0 | 0.0 | 0.00 | 0.70 | 0.00 | ||
| 20260504012642 | 57 | 194 | 0.0 | 0.0 | 0.00 | 0.70 | 0.00 | ||
| 20260504012141 | 58 | 194 | 0.0 | 0.0 | 0.00 | 0.70 | 0.00 | ||
| 20260504011640 | 58 | 194 | 0.0 | 0.0 | 0.00 | 0.70 | 0.00 | ||
| 20260504010637 | 58 | 273 | 1.0 | 0.0 | 0.00 | 0.70 | 0.00 | ||
| 20260504003133 | 60 | 342 | 0.0 | 0.0 | 0.00 | 0.70 | 0.00 | ||
| 20260504002132 | 61 | 342 | 0.0 | 0.0 | 0.00 | 0.70 | 0.00 | ||
| 20260504001633 | 61 | 342 | 0.0 | 0.0 | 0.00 | 0.70 | 0.00 | ||
| 20260504001132 | 61 | 342 | 0.0 | 0.0 | 0.00 | 0.70 | 0.00 | ||
| 20260504000632 | 62 | 342 | 0.0 | 0.0 | 0.00 | 0.70 | 0.00 | ||
| 20260504000130 | 62 | 342 | 0.0 | 0.0 | 0.00 | 0.70 | 0.00 | ||
| 20260503235631 | 62 | 342 | 0.0 | 0.0 | 0.00 | 0.70 | 0.00 | ||
| 20260503235130 | 63 | 342 | 0.0 | 0.0 | 0.00 | 0.70 | 0.00 | ||
| 20260503234631 | 63 | 335 | 0.0 | 0.0 | 0.00 | 0.70 | 0.00 | ||
| 20260503234129 | 63 | 335 | 0.0 | 0.0 | 0.00 | 0.70 | 0.00 | ||
| 20260503233631 | 64 | 204 | 0.0 | 0.0 | 0.00 | 0.70 | 0.00 | ||
| 20260503233129 | 63 | 204 | 1.0 | 0.0 | 0.00 | 0.70 | 0.00 | ||
| 20260503232630 | 64 | 235 | 2.0 | 1.0 | 0.00 | 0.70 | 0.00 | ||
| 20260503232129 | 64 | 263 | 2.0 | 0.0 | 0.00 | 0.70 | 0.00 | ||
| 20260503231629 | 64 | 7 | 0.0 | 0.0 | 0.00 | 0.70 | 0.00 | ||
| 20260503231127 | 64 | 236 | 0.0 | 0.0 | 0.00 | 0.70 | 0.00 | ||
| 20260503230127 | 64 | 311 | 0.0 | 0.0 | 0.00 | 0.70 | 0.00 | ||
| 20260503225627 | 65 | 32 | 3.0 | 0.0 | 0.00 | 0.70 | 0.00 | ||
| 20260503224627 | 65 | 21 | 2.0 | 2.0 | 0.00 | 0.70 | 0.00 | ||
| 20260503224123 | 65 | 46 | 2.0 | 1.0 | 0.00 | 0.70 | 0.00 | ||
| 20260503222622 | 65 | 203 | 2.0 | 1.0 | 0.00 | 0.70 | 0.00 | ||
| 20260503222116 | 65 | 135 | 0.0 | 5.0 | 0.00 | 0.70 | 0.00 | ||
| 20260503221617 | 65 | 158 | 0.0 | 3.0 | 0.00 | 0.70 | 0.00 | ||
| 20260503215109 | 67 | 333 | 2.0 | 5.0 | 0.00 | 0.70 | 0.00 | ||
| 20260503214103 | 68 | 149 | 4.0 | 1.0 | 0.00 | 0.70 | 0.00 | ||
| 20260503213605 | 68 | 23 | 0.0 | 2.0 | 0.00 | 0.70 | 0.00 | ||
| 20260503213103 | 69 | 325 | 4.0 | 2.0 | 0.00 | 0.70 | 0.00 | ||
| 20260503211102 | 69 | 250 | 6.0 | 4.0 | 0.00 | 0.70 | 0.00 | ||
| 20260503210101 | 69 | 72 | 0.0 | 0.0 | 0.00 | 0.70 | 0.00 | ||
| 20260503205602 | 69 | 242 | 1.0 | 0.0 | 0.00 | 0.70 | 0.00 | ||
| 20260503205101 | 69 | 283 | 0.0 | 0.0 | 0.00 | 0.70 | 0.00 | ||
| 20260503204602 | 70 | 297 | 1.0 | 2.0 | 0.00 | 0.70 | 0.00 | ||
| 20260503203059 | 70 | 259 | 0.0 | 0.0 | 0.00 | 0.70 | 0.00 | ||
| 20260503202059 | 70 | 309 | 0.0 | 1.0 | 0.00 | 0.70 | 0.00 | ||
| 20260503200058 | 70 | 325 | 0.0 | 0.0 | 0.00 | 0.70 | 0.00 | ||
| 20260503195559 | 71 | 293 | 0.0 | 4.0 | 0.00 | 0.70 | 0.00 | ||
| 20260503193558 | 71 | 357 | 3.0 | 3.0 | 0.00 | 0.70 | 0.00 | ||
| 20260503184054 | 70 | 193 | 2.0 | 1.0 | 0.00 | 0.70 | 0.00 | ||
| 20260503090458 | 48 | 120 | 0.0 | 0.0 | 0.00 | 0.70 | 0.00 | ||
| 20260503081454 | 49 | 120 | 0.0 | 0.0 | 0.00 | 0.70 | 0.00 | ||
| 20260503080950 | 49 | 120 | 0.0 | 0.0 | 0.00 | 0.70 | 0.00 | ||
| 20260503080451 | 49 | 120 | 0.0 | 0.0 | 0.00 | 0.70 | 0.00 | ||
| 20260503072444 | 50 | 120 | 0.0 | 0.0 | 0.00 | 0.70 | 0.00 |